Time,TemperatureF,DewpointF,PressureIn,WindDirection,WindDirectionDegrees,WindSpeedMPH,WindSpeedGustMPH,Humidity,HourlyPrecipIn,Conditions,Clouds,dailyrainin,SolarRadiationWatts/m^2,SoftwareType,DateUTC
2013-02-26 00:02:00,54.0,53.0,-100.00,SE,143,9.0,23.0,96,0.19,,,0.28,1.000000,,2013-02-26 06:02:00,
2013-02-26 00:32:00,55.0,53.0,-100.00,SSW,197,5.0,18.0,94,0.03,,,0.31,1.000000,,2013-02-26 06:32:00,
2013-02-26 00:42:00,55.0,53.0,-100.00,SSW,197,5.0,18.0,94,0.03,,,0.31,1.000000,,2013-02-26 06:42:00,
2013-02-26 00:52:00,55.0,53.0,-100.00,SSW,197,5.0,18.0,94,0.03,,,0.31,1.000000,,2013-02-26 06:52:00,
2013-02-26 01:01:00,55.0,53.0,-100.00,SSW,197,5.0,18.0,94,0.03,,,0.31,1.000000,,2013-02-26 07:01:00,
2013-02-26 01:32:00,54.0,53.0,-100.00,SSE,168,5.0,12.0,96,0.04,,,0.35,1.000000,,2013-02-26 07:32:00,
2013-02-26 01:42:00,54.0,53.0,-100.00,SSE,168,5.0,12.0,96,0.04,,,0.35,1.000000,,2013-02-26 07:42:00,
2013-02-26 01:52:00,54.0,53.0,-100.00,SSE,168,5.0,12.0,96,0.04,,,0.35,1.000000,,2013-02-26 07:52:00,
2013-02-26 02:02:00,54.0,53.0,-100.00,SSE,168,5.0,12.0,96,0.04,,,0.35,1.000000,,2013-02-26 08:02:00,
2013-02-26 02:32:00,54.0,53.0,-100.00,SSW,207,5.0,12.0,96,0.00,,,0.35,1.000000,,2013-02-26 08:32:00,
2013-02-26 02:42:00,54.0,53.0,-100.00,SSW,207,5.0,12.0,96,0.00,,,0.35,1.000000,,2013-02-26 08:42:00,
2013-02-26 02:52:00,54.0,53.0,-100.00,SSW,207,5.0,12.0,96,0.00,,,0.35,1.000000,,2013-02-26 08:52:00,
2013-02-26 03:02:00,54.0,53.0,-100.00,SSW,207,5.0,12.0,96,0.00,,,0.35,1.000000,,2013-02-26 09:02:00,
2013-02-26 03:43:00,53.0,50.0,-100.00,SSW,211,5.0,11.0,91,0.00,,,0.35,1.000000,,2013-02-26 09:43:00,
2013-02-26 03:52:00,53.0,50.0,-100.00,SSW,211,5.0,11.0,91,0.00,,,0.35,1.000000,,2013-02-26 09:52:00,
2013-02-26 04:01:00,53.0,50.0,-100.00,SSW,211,5.0,11.0,91,0.00,,,0.35,1.000000,,2013-02-26 10:01:00,
2013-02-26 04:32:00,49.0,44.0,-100.00,WSW,242,6.0,16.0,84,0.00,,,0.35,1.000000,,2013-02-26 10:32:00,
2013-02-26 04:42:00,49.0,44.0,-100.00,WSW,242,6.0,16.0,84,0.00,,,0.35,1.000000,,2013-02-26 10:42:00,
2013-02-26 04:52:00,49.0,44.0,-100.00,WSW,242,6.0,16.0,84,0.00,,,0.35,1.000000,,2013-02-26 10:52:00,
2013-02-26 05:01:00,49.0,44.0,-100.00,WSW,242,6.0,16.0,84,0.00,,,0.35,1.000000,,2013-02-26 11:01:00,
2013-02-26 05:32:00,47.0,42.0,-100.00,SW,228,5.0,19.0,82,0.00,,,0.35,1.000000,,2013-02-26 11:32:00,
2013-02-26 05:42:00,47.0,42.0,-100.00,SW,228,5.0,19.0,82,0.00,,,0.35,1.000000,,2013-02-26 11:42:00,
2013-02-26 05:52:00,47.0,42.0,-100.00,SW,228,5.0,19.0,82,0.00,,,0.35,1.000000,,2013-02-26 11:52:00,
2013-02-26 06:01:00,47.0,42.0,-100.00,SW,228,5.0,19.0,82,0.00,,,0.35,1.000000,,2013-02-26 12:01:00,
2013-02-26 06:32:00,45.0,39.0,-100.00,SW,233,5.0,16.0,79,0.00,,,0.35,1.000000,,2013-02-26 12:32:00,
2013-02-26 06:42:00,45.0,39.0,-100.00,SW,233,5.0,16.0,79,0.00,,,0.35,1.000000,,2013-02-26 12:42:00,
2013-02-26 06:53:00,45.0,39.0,-100.00,SW,233,5.0,16.0,79,0.00,,,0.35,1.000000,,2013-02-26 12:53:00,
2013-02-26 07:01:00,45.0,39.0,-100.00,SW,233,5.0,16.0,79,0.00,,,0.35,1.000000,,2013-02-26 13:01:00,
2013-02-26 07:42:00,44.0,37.0,-100.00,SW,223,5.0,15.0,76,0.00,,,0.35,13.000000,,2013-02-26 13:42:00,
2013-02-26 07:52:00,44.0,37.0,-100.00,SW,223,5.0,15.0,76,0.00,,,0.35,13.000000,,2013-02-26 13:52:00,
2013-02-26 08:01:00,44.0,37.0,-100.00,SW,223,5.0,15.0,76,0.00,,,0.35,13.000000,,2013-02-26 14:01:00,
2013-02-26 08:32:00,43.0,36.0,-100.00,SW,227,6.0,15.0,75,0.00,,,0.35,76.000000,,2013-02-26 14:32:00,
2013-02-26 08:42:00,43.0,36.0,-100.00,SW,227,6.0,15.0,75,0.00,,,0.35,76.000000,,2013-02-26 14:42:00,
2013-02-26 08:52:00,43.0,36.0,-100.00,SW,227,6.0,15.0,75,0.00,,,0.35,76.000000,,2013-02-26 14:52:00,
2013-02-26 09:02:00,43.0,36.0,-100.00,SW,227,6.0,15.0,75,0.00,,,0.35,76.000000,,2013-02-26 15:02:00,
2013-02-26 09:32:00,44.0,37.0,-100.00,SW,226,7.0,15.0,77,0.00,,,0.35,69.000000,,2013-02-26 15:32:00,
2013-02-26 09:42:00,44.0,37.0,-100.00,SW,226,7.0,15.0,77,0.00,,,0.35,69.000000,,2013-02-26 15:42:00,
2013-02-26 09:52:00,44.0,37.0,-100.00,SW,226,7.0,15.0,77,0.00,,,0.35,69.000000,,2013-02-26 15:52:00,
2013-02-26 10:01:00,44.0,37.0,-100.00,SW,226,7.0,15.0,77,0.00,,,0.35,69.000000,,2013-02-26 16:01:00,
2013-02-26 10:32:00,43.0,35.0,-100.00,SW,226,7.0,17.0,72,0.01,,,0.36,91.000000,,2013-02-26 16:32:00,
2013-02-26 10:42:00,43.0,35.0,-100.00,SW,226,7.0,17.0,72,0.01,,,0.36,91.000000,,2013-02-26 16:42:00,
2013-02-26 10:52:00,43.0,35.0,-100.00,SW,226,7.0,17.0,72,0.01,,,0.36,91.000000,,2013-02-26 16:52:00,
2013-02-26 11:01:00,43.0,35.0,-100.00,SW,226,7.0,17.0,72,0.01,,,0.36,91.000000,,2013-02-26 17:01:00,
2013-02-26 11:32:00,43.0,38.0,-100.00,SW,230,7.0,16.0,82,0.00,,,0.36,86.000000,,2013-02-26 17:32:00,
2013-02-26 11:42:00,43.0,38.0,-100.00,SW,230,7.0,16.0,82,0.00,,,0.36,86.000000,,2013-02-26 17:42:00,
2013-02-26 11:52:00,43.0,38.0,-100.00,SW,230,7.0,16.0,82,0.00,,,0.36,86.000000,,2013-02-26 17:52:00,
2013-02-26 12:01:00,43.0,38.0,-100.00,SW,230,7.0,16.0,82,0.00,,,0.36,86.000000,,2013-02-26 18:01:00,
2013-02-26 12:32:00,42.0,35.0,-100.00,SW,234,9.0,21.0,75,0.00,,,0.36,79.000000,,2013-02-26 18:32:00,
2013-02-26 12:42:00,42.0,35.0,-100.00,SW,234,9.0,21.0,75,0.00,,,0.36,79.000000,,2013-02-26 18:42:00,
2013-02-26 12:52:00,42.0,35.0,-100.00,SW,234,9.0,21.0,75,0.00,,,0.36,79.000000,,2013-02-26 18:52:00,
2013-02-26 13:01:00,42.0,35.0,-100.00,SW,234,9.0,21.0,75,0.00,,,0.36,79.000000,,2013-02-26 19:01:00,
2013-02-26 13:32:00,42.0,34.0,-100.00,SW,230,8.0,21.0,74,0.00,,,0.36,56.000000,,2013-02-26 19:32:00,
2013-02-26 13:42:00,42.0,34.0,-100.00,SW,230,8.0,21.0,74,0.00,,,0.36,56.000000,,2013-02-26 19:42:00,
2013-02-26 13:52:00,42.0,34.0,-100.00,SW,230,8.0,21.0,74,0.00,,,0.36,56.000000,,2013-02-26 19:52:00,
2013-02-26 14:01:00,42.0,34.0,-100.00,SW,230,8.0,21.0,74,0.00,,,0.36,56.000000,,2013-02-26 20:01:00,
2013-02-26 16:42:00,43.0,34.0,-100.00,SW,230,7.0,16.0,69,-99.99,,,0.36,46.000000,,2013-02-26 22:42:00,
2013-02-26 16:52:00,43.0,34.0,-100.00,SW,230,7.0,16.0,69,-99.99,,,0.36,46.000000,,2013-02-26 22:52:00,
2013-02-26 17:01:00,43.0,34.0,-100.00,SW,230,7.0,16.0,69,-99.99,,,0.36,46.000000,,2013-02-26 23:01:00,
2013-02-26 17:32:00,43.0,35.0,-100.00,WSW,251,9.0,20.0,72,0.00,,,0.36,21.000000,,2013-02-26 23:32:00,
2013-02-26 17:42:00,43.0,35.0,-100.00,WSW,251,9.0,20.0,72,0.00,,,0.36,21.000000,,2013-02-26 23:42:00,
2013-02-26 17:52:00,43.0,35.0,-100.00,WSW,251,9.0,20.0,72,0.00,,,0.36,21.000000,,2013-02-26 23:52:00,
2013-02-26 18:01:00,43.0,35.0,-100.00,WSW,251,9.0,20.0,72,0.00,,,0.36,21.000000,,2013-02-27 00:01:00,
2013-02-26 18:42:00,42.0,32.0,-100.00,WSW,244,9.0,17.0,68,0.00,,,0.36,4.000000,,2013-02-27 00:42:00,
2013-02-26 18:52:00,42.0,32.0,-100.00,WSW,244,9.0,17.0,68,0.00,,,0.36,4.000000,,2013-02-27 00:52:00,
2013-02-26 19:01:00,42.0,32.0,-100.00,WSW,244,9.0,17.0,68,0.00,,,0.36,4.000000,,2013-02-27 01:01:00,
2013-02-26 19:32:00,42.0,33.0,-100.00,WSW,255,6.0,17.0,70,0.00,,,0.36,1.000000,,2013-02-27 01:32:00,
2013-02-26 19:42:00,42.0,33.0,-100.00,WSW,255,6.0,17.0,70,0.00,,,0.36,1.000000,,2013-02-27 01:42:00,
2013-02-26 19:52:00,42.0,33.0,-100.00,WSW,255,6.0,17.0,70,0.00,,,0.36,1.000000,,2013-02-27 01:52:00,
2013-02-26 20:01:00,42.0,33.0,-100.00,WSW,255,6.0,17.0,70,0.00,,,0.36,1.000000,,2013-02-27 02:01:00,
2013-02-26 20:42:00,41.0,33.0,-100.00,West,259,6.0,15.0,72,0.00,,,0.32,1.000000,,2013-02-27 02:42:00,
2013-02-26 20:52:00,41.0,33.0,-100.00,West,259,6.0,15.0,72,0.00,,,0.32,1.000000,,2013-02-27 02:52:00,
2013-02-26 21:02:00,41.0,33.0,-100.00,West,259,6.0,15.0,72,0.00,,,0.32,1.000000,,2013-02-27 03:02:00,
2013-02-26 21:32:00,41.0,32.0,-100.00,West,266,5.0,16.0,70,0.00,,,0.30,1.000000,,2013-02-27 03:32:00,
2013-02-26 21:42:00,41.0,32.0,-100.00,West,266,5.0,16.0,70,0.00,,,0.30,1.000000,,2013-02-27 03:42:00,
2013-02-26 21:52:00,41.0,32.0,-100.00,West,266,5.0,16.0,70,0.00,,,0.30,1.000000,,2013-02-27 03:52:00,
2013-02-26 22:01:00,41.0,32.0,-100.00,West,266,5.0,16.0,70,0.00,,,0.30,1.000000,,2013-02-27 04:01:00,
2013-02-26 22:32:00,41.0,32.0,-100.00,West,263,6.0,13.0,69,0.00,,,0.27,1.000000,,2013-02-27 04:32:00,
2013-02-26 22:42:00,41.0,32.0,-100.00,West,263,6.0,13.0,69,0.00,,,0.27,1.000000,,2013-02-27 04:42:00,
2013-02-26 22:52:00,41.0,32.0,-100.00,West,263,6.0,13.0,69,0.00,,,0.27,1.000000,,2013-02-27 04:52:00,
2013-02-26 23:01:00,41.0,32.0,-100.00,West,263,6.0,13.0,69,0.00,,,0.27,1.000000,,2013-02-27 05:01:00,
2013-02-26 23:32:00,41.0,32.0,-100.00,West,270,6.0,14.0,70,0.00,,,0.08,1.000000,,2013-02-27 05:32:00,
2013-02-26 23:42:00,41.0,32.0,-100.00,West,270,6.0,14.0,70,0.00,,,0.08,1.000000,,2013-02-27 05:42:00,
2013-02-26 23:52:00,41.0,32.0,-100.00,West,270,6.0,14.0,70,0.00,,,0.08,1.000000,,2013-02-27 05:52:00,